Location: Asheville, NC
(35.6000°N, 82.5500°W)
Time: 11:57:03

CUTE-I - Pass Details

Date: 11 March 2018
Orbit: 812 x 824 km, 98.7° (Epoch: 23 March)

Event Time Altitude Azimuth Distance (km) Brightness Sun altitude
Rises 20:10:05 0° 202° (SSW) 3,326 ? -8.1°
Reaches altitude 10° 20:12:59 10° 218° (SW) 2,401 ? -8.7°
Maximum altitude 20:16:54 21° 266° (W) 1,774 ? -9.5°
Drops below altitude 10° 20:20:51 10° 314° (NW) 2,418 ? -10.3°
Sets 20:23:49 0° 330° (NNW) 3,358 ? -10.9°
